CZ-6A DEB

Satellite information

Favourite Embed

Satellite Type and Status

DEBRISIN ORBIT

Key statistics

Satellite CZ-6A DEB at a glance.

Uptime

494

Days in orbit

Revolutions

≈ 14.5

Per day

Orbit

LEO

Low Earth Orbit

Inclination

88.9

Latest

Satellite identification and parameters

Extended collection of information and parameters for CZ-6A DEB.

Object identification

Identified? True

Debris? True

Object name: CZ-6A DEB

International designator: 2024-140ZJ

Object number (NORAD): 61452

Object ID (CCSDS): 61452

Country: PEOPLES REPUBLIC OF CHINA (PRC)

Current information (Y/N): Y

RCS size: SMALL

Orbital parameters

Period: 99.555 minutes

Inclination: 88.8962 deg

SMA: 7115.452 km

Apoapsis: 780.752 km

Periapsis: 693.882 km

RAAN: 287.5975 deg

Eccentricy: 0.00610433

Argument of periapsis: 137.225 deg

Mean anomaly: 223.3729 deg

Mean motion: 14.46435298 rev/day

Mean motion (dot): 0.00009881 rev/day2

B* drag term: 0.0026808645 1/REarth

Two-line elements (TLE)

Creation date: Dec. 11, 2025, 10:54 a.m.

Reference frame: TEME

Reference center: EARTH

Epoch: Dec. 11, 2025, 2:49 a.m. UTC

TLE line 0: 0 CZ-6A DEB

TLE line 1: 1 61452U 24140ZJ 25345.11804160 .00009881 00000-0 26809-2 0 9992

TLE line 2: 2 61452 88.8962 287.5975 0061043 137.2250 223.3729 14.46435298 67713

Live tracking on map

Real-time ground track for satellite CZ-6A DEB.

In-orbit conjunctions

A list of the most updated potential collisions computed for object CZ-6A DEB.

Target Orbit TCA Probability of collision Miss distance Type
IRIDIUM 33 LEO 2025-11-07 13:53:00 0.0007035757 179.0 (m) PAYLOAD
COSMOS 783 LEO 2025-09-30 14:08:12 0.0001071212 513.0 (m) PAYLOAD
CZ-6A DEB SSO 2025-02-24 01:27:14 0.0001197991 186.0 (m) DEBRIS
CZ-6A DEB SSO 2025-02-12 02:59:56 0.000248789 124.0 (m) DEBRIS
CZ-6A DEB SSO 2025-01-28 17:22:16 0.0002214388 476.0 (m) DEBRIS

Associated space launch

18 Low Earth Orbit communication satellites with Ku, Q and V band payloads for the G60 constellation operated by Shanghai Spacecom Satellite Technology (SSST) with funding backed by the Shanghai local government. Initial constellation will consist of 1296 satellites by 2027 with long term plans to expand it to 12000 satellites.

CZ-6A DEB was lifted into orbit during the mission ‘Long March 6A | G60 Polar Group 01’, on board a Long March 6A space rocket.

The launch took place on Aug. 6, 2024, 6:42 a.m. from Launch Complex 9A.

For more information about the launch, click the button.

Launch to space Long March 6A | G60 Polar Group 01
Long March 6A | G60 Polar Group 01

Agency: N/A

Status: Launch Successful

Launch date: Aug. 6, 2024, 6:42 a.m. UTC

Rocket: Long March 6A

Launch pad: Launch Complex 9A

Location: Taiyuan Satellite Launch Center, People's Republic of China

...

Latest news about this satellite

News about space launch
Brightness of first Chinese broadband constellation satellites alarms astronomers

The first satellites of a Chinese broadband constellation are significantly brighter than those of Western systems, posing a new challenge for astronomers.

News about space launch
Chinese rocket stage breaks up into cloud of more than 700 pieces of space debris

HELSINKI — A Chinese Long March 6A rocket’s upper stage has fragmented into a cloud of over 700 pieces of space debris, adding to concerns about long-term orbital safety. China […]

News about space launch
China's Thousand Sails Megaconstellation Kicks Off with Dangerous Debris Field

China's Thousand Sails Megaconstellation Kicks Off with Dangerous Debris Field


Newsletter sign-up

Weekly statistics, charts and insights to help you stay on top of the space industry.